Powrót do katalogu

NOAA 15

AktywnyPogodaSSO
NORAD 25338·PAYLOAD·🇺🇸 United States

Wystrzelony May 13, 1998 z Vandenberg Space Force Base

Loading…

Następne Przeloty (najbliższe 24 godziny)

TLE

ŚwieżeSource: Space-Track

Epoka: Sep 14, 2026, 13:48 UTC

1 25338U 98030A   26257.57517459  .00000072  00000-0  47078-4 0  9995
2 25338  98.5056 275.7880 0011462  86.1691 274.0801 14.27168538474044

Śledź NOAA 15 w czasie rzeczywistym z AllMySat

Download on the App Store